| time (UTC) | temp F | wind direction | speed MPH | gust MPH | rain 1hr in | rain 24hr in | rain mn in | humidity % | barometer mb |
| 20260506222023 | 61 | 14 | 8.0 | 17.0 | 0.00 | 0.00 | 0.00 | 84 | 1047.0 |
| 20260506221521 | 61 | 25 | 9.0 | 14.0 | 0.00 | 0.00 | 0.00 | 84 | 1047.1 |
| 20260506221019 | 61 | 315 | 6.0 | 11.0 | 0.00 | 0.00 | 0.00 | 84 | 1047.1 |
| 20260506220514 | 61 | 39 | 7.0 | 12.0 | 0.00 | 0.00 | 0.00 | 85 | 1047.0 |
| 20260506220010 | 60 | 346 | 7.0 | 15.0 | 0.00 | 0.00 | 0.00 | 85 | 1047.4 |
| 20260506215507 | 60 | 58 | 13.0 | 17.0 | 0.00 | 0.00 | 0.00 | 85 | 1047.1 |
| 20260506215003 | 61 | 0 | 7.0 | 17.0 | 0.00 | 0.00 | 0.00 | 84 | 1046.9 |
| 20260506214500 | 61 | 332 | 9.0 | 16.0 | 0.00 | 0.00 | 0.00 | 84 | 1046.8 |
| 20260506213957 | 60 | 9 | 15.0 | 18.0 | 0.00 | 0.00 | 0.00 | 84 | 1047.0 |
| 20260506213455 | 61 | 347 | 5.0 | 17.0 | 0.00 | 0.00 | 0.00 | 84 | 1047.0 |
| 20260506212952 | 61 | 324 | 2.0 | 16.0 | 0.00 | 0.00 | 0.00 | 84 | 1047.2 |
| 20260506212448 | 61 | 354 | 7.0 | 16.0 | 0.00 | 0.00 | 0.00 | 83 | 1047.1 |
| 20260506211943 | 61 | 9 | 6.0 | 13.0 | 0.00 | 0.00 | 0.00 | 84 | 1047.2 |
| 20260506211439 | 61 | 26 | 10.0 | 17.0 | 0.00 | 0.00 | 0.00 | 83 | 1047.0 |
| 20260506210937 | 61 | 359 | 7.0 | 20.0 | 0.00 | 0.00 | 0.00 | 83 | 1047.2 |
| 20260506210433 | 61 | 28 | 8.0 | 15.0 | 0.00 | 0.00 | 0.00 | 84 | 1047.5 |
| 20260506205931 | 61 | 347 | 12.0 | 16.0 | 0.00 | 0.00 | 0.00 | 84 | 1047.3 |
| 20260506205426 | 61 | 321 | 14.0 | 22.0 | 0.00 | 0.00 | 0.00 | 83 | 1047.6 |
| 20260506204923 | 62 | 348 | 6.0 | 16.0 | 0.00 | 0.00 | 0.00 | 83 | 1047.3 |
| 20260506204421 | 62 | 330 | 11.0 | 18.0 | 0.00 | 0.00 | 0.00 | 82 | 1047.3 |
| 20260506203918 | 61 | 8 | 13.0 | 21.0 | 0.00 | 0.00 | 0.00 | 83 | 1047.3 |
| 20260506203414 | 61 | 325 | 8.0 | 26.0 | 0.00 | 0.00 | 0.00 | 83 | 1047.4 |
| 20260506202911 | 62 | 321 | 11.0 | 16.0 | 0.00 | 0.00 | 0.00 | 83 | 1047.6 |
| 20260506202409 | 61 | 358 | 10.0 | 24.0 | 0.00 | 0.00 | 0.00 | 83 | 1047.6 |
| 20260506201905 | 62 | 338 | 17.0 | 20.0 | 0.00 | 0.00 | 0.00 | 82 | 1047.4 |
| 20260506201403 | 63 | 25 | 16.0 | 19.0 | 0.00 | 0.00 | 0.00 | 81 | 1047.3 |
| 20260506200859 | 64 | 349 | 12.0 | 18.0 | 0.00 | 0.00 | 0.00 | 80 | 1047.3 |
| 20260506200355 | 63 | 345 | 13.0 | 23.0 | 0.00 | 0.00 | 0.00 | 81 | 1047.2 |
| 20260506195851 | 63 | 324 | 12.0 | 24.0 | 0.00 | 0.00 | 0.00 | 82 | 1047.1 |
| 20260506195349 | 64 | 335 | 11.0 | 18.0 | 0.00 | 0.00 | 0.00 | 81 | 1047.2 |
| 20260506194846 | 64 | 18 | 9.0 | 21.0 | 0.00 | 0.00 | 0.00 | 82 | 1047.1 |
| 20260506194343 | 64 | 14 | 10.0 | 18.0 | 0.00 | 0.00 | 0.00 | 82 | 1047.0 |
| 20260506193840 | 65 | 13 | 9.0 | 19.0 | 0.00 | 0.00 | 0.00 | 81 | 1047.0 |
| 20260506193336 | 64 | 354 | 12.0 | 20.0 | 0.00 | 0.00 | 0.00 | 82 | 1047.3 |
| 20260506192833 | 65 | 342 | 12.0 | 18.0 | 0.00 | 0.00 | 0.00 | 83 | 1047.1 |
| 20260506192330 | 65 | 349 | 14.0 | 21.0 | 0.00 | 0.00 | 0.00 | 83 | 1047.2 |
| 20260506191827 | 65 | 319 | 8.0 | 20.0 | 0.00 | 0.00 | 0.00 | 82 | 1047.1 |
| 20260506191323 | 65 | 21 | 3.0 | 22.0 | 0.00 | 0.00 | 0.00 | 84 | 1047.3 |
| 20260506190820 | 65 | 2 | 15.0 | 22.0 | 0.00 | 0.00 | 0.00 | 84 | 1047.2 |
| 20260506190316 | 66 | 352 | 13.0 | 20.0 | 0.00 | 0.00 | 0.00 | 83 | 1047.5 |
| 20260506185813 | 67 | 326 | 7.0 | 24.0 | 0.00 | 0.00 | 0.00 | 83 | 1047.3 |
| 20260506185310 | 68 | 337 | 10.0 | 20.0 | 0.00 | 0.00 | 0.00 | 81 | 1047.2 |
| 20260506184807 | 69 | 336 | 9.0 | 22.0 | 0.00 | 0.00 | 0.00 | 80 | 1047.0 |
| 20260506184304 | 71 | 1 | 9.0 | 17.0 | 0.00 | 0.00 | 0.00 | 78 | 1046.8 |
| 20260506183802 | 72 | 334 | 2.0 | 16.0 | 0.00 | 0.00 | 0.00 | 76 | 1046.7 |
| 20260506183257 | 73 | 43 | 4.0 | 10.0 | 0.00 | 0.00 | 0.00 | 75 | 1046.7 |
| 20260506182755 | 72 | 21 | 10.0 | 11.0 | 0.00 | 0.00 | 0.00 | 76 | 1046.6 |
| 20260506182252 | 73 | 354 | 5.0 | 9.0 | 0.00 | 0.00 | 0.00 | 75 | 1046.8 |
| 20260506181750 | 74 | 56 | 5.0 | 9.0 | 0.00 | 0.00 | 0.00 | 74 | 1046.3 |
| 20260506181247 | 74 | 8 | 6.0 | 9.0 | 0.00 | 0.00 | 0.00 | 72 | 1046.6 |
| 20260506180744 | 73 | 17 | 3.0 | 5.0 | 0.00 | 0.00 | 0.00 | 75 | 1046.7 |
| 20260506180240 | 73 | 18 | 5.0 | 5.0 | 0.00 | 0.00 | 0.00 | 74 | 1046.6 |
| 20260506175736 | 72 | 78 | 2.0 | 6.0 | 0.00 | 0.00 | 0.00 | 78 | 1046.8 |
| 20260506175233 | 70 | 83 | 1.0 | 10.0 | 0.00 | 0.00 | 0.00 | 79 | 1046.3 |
| 20260506174731 | 71 | 121 | 8.0 | 8.0 | 0.00 | 0.00 | 0.00 | 78 | 1046.5 |
| 20260506174227 | 69 | 78 | 5.0 | 8.0 | 0.00 | 0.00 | 0.00 | 80 | 1046.3 |
| 20260506173725 | 69 | 55 | 3.0 | 9.0 | 0.00 | 0.00 | 0.00 | 80 | 1046.3 |
| 20260506173222 | 68 | 119 | 4.0 | 11.0 | 0.00 | 0.00 | 0.00 | 82 | 1046.2 |
| 20260506172719 | 69 | 121 | 5.0 | 7.0 | 0.00 | 0.00 | 0.00 | 81 | 1046.1 |
| 20260506172215 | 67 | 342 | 1.0 | 7.0 | 0.00 | 0.00 | 0.00 | 83 | 1046.5 |
| 20260506171713 | 65 | 109 | 3.0 | 13.0 | 0.00 | 0.00 | 0.00 | 85 | 1046.3 |
| 20260506171210 | 67 | 111 | 12.0 | 17.0 | 0.00 | 0.00 | 0.00 | 83 | 1046.3 |
| 20260506170708 | 67 | 74 | 10.0 | 17.0 | 0.00 | 0.00 | 0.00 | 83 | 1046.3 |
| 20260506170204 | 66 | 116 | 10.0 | 11.0 | 0.00 | 0.00 | 0.00 | 84 | 1046.6 |
| 20260506165703 | 65 | 103 | 7.0 | 18.0 | 0.00 | 0.00 | 0.00 | 86 | 1046.7 |
| 20260506165159 | 65 | 126 | 11.0 | 13.0 | 0.00 | 0.00 | 0.00 | 86 | 1046.6 |
| 20260506164656 | 64 | 100 | 9.0 | 15.0 | 0.02 | 0.00 | 0.00 | 87 | 1046.6 |
| 20260506164154 | 64 | 113 | 4.0 | 15.0 | 0.02 | 0.00 | 0.00 | 89 | 1046.6 |
| 20260506163650 | 63 | 121 | 7.0 | 13.0 | 0.00 | 0.00 | 0.00 | 91 | 1046.8 |
| 20260506163145 | 62 | 138 | 3.0 | 9.0 | 0.00 | 0.00 | 0.00 | 91 | 1047.5 |
| 20260506162641 | 61 | 19 | 7.0 | 15.0 | 0.00 | 0.00 | 0.00 | 93 | 1047.4 |
| 20260506162139 | 62 | 55 | 8.0 | 9.0 | 0.00 | 0.00 | 0.00 | 94 | 1047.5 |
| 20260506161636 | 61 | 73 | 4.0 | 8.0 | 0.00 | 0.00 | 0.00 | 94 | 1047.5 |
| 20260506161133 | 60 | 20 | 6.0 | 10.0 | 0.00 | 0.00 | 0.00 | 94 | 1047.4 |
| 20260506160630 | 60 | 68 | 6.0 | 13.0 | 0.00 | 0.00 | 0.00 | 95 | 1047.9 |
| 20260506160127 | 60 | 348 | 1.0 | 18.0 | 0.00 | 0.00 | 0.00 | 95 | 1048.4 |
| 20260506155626 | 60 | 14 | 6.0 | 18.0 | 0.00 | 0.00 | 0.00 | 95 | 1048.1 |
| 20260506155122 | 62 | 6 | 15.0 | 29.0 | 0.00 | 0.00 | 0.00 | 94 | 1047.5 |
| 20260506153219 | 62 | 52 | 16.0 | 24.0 | 0.00 | 0.00 | 0.00 | 94 | 1047.7 |
| 20260506152715 | 63 | 7 | 5.0 | 19.0 | 0.00 | 0.00 | 0.00 | 93 | 1047.7 |
| 20260506152213 | 63 | 13 | 14.0 | 26.0 | 0.00 | 0.00 | 0.00 | 92 | 1047.6 |
| 20260506151712 | 64 | 359 | 10.0 | 24.0 | 0.00 | 0.00 | 0.00 | 92 | 1047.2 |
| 20260506151208 | 65 | 16 | 6.0 | 9.0 | 0.00 | 0.00 | 0.00 | 93 | 1047.0 |
| 20260506150704 | 64 | 20 | 11.0 | 16.0 | 0.00 | 0.00 | 0.00 | 93 | 1046.7 |
| 20260506150202 | 65 | 123 | 8.0 | 23.0 | 0.00 | 0.00 | 0.00 | 92 | 1046.8 |
| 20260506145659 | 65 | 51 | 13.0 | 24.0 | 0.00 | 0.00 | 0.00 | 92 | 1047.0 |
| 20260506145155 | 66 | 345 | 11.0 | 28.0 | 0.00 | 0.00 | 0.00 | 91 | 1046.4 |
| 20260506144653 | 67 | 349 | 9.0 | 22.0 | 0.00 | 0.00 | 0.00 | 90 | 1045.9 |
| 20260506144149 | 68 | 0 | 9.0 | 13.0 | 0.00 | 0.00 | 0.00 | 90 | 1045.7 |
| 20260506143647 | 69 | 21 | 7.0 | 21.0 | 0.00 | 0.00 | 0.00 | 89 | 1045.8 |
| 20260506143145 | 72 | 6 | 4.0 | 15.0 | 0.00 | 0.00 | 0.00 | 88 | 1045.5 |
| 20260506142643 | 77 | 7 | 3.0 | 4.0 | 0.00 | 0.00 | 0.00 | 88 | 1045.1 |
| 20260506142141 | 77 | 69 | 1.0 | 3.0 | 0.00 | 0.00 | 0.00 | 89 | 1044.8 |
| 20260506141638 | 77 | 168 | 1.0 | 3.0 | 0.00 | 0.00 | 0.00 | 89 | 1044.7 |
| 20260506141136 | 76 | 0 | 0.0 | 4.0 | 0.00 | 0.00 | 0.00 | 90 | 1044.9 |
| 20260506140633 | 76 | 139 | 6.0 | 6.0 | 0.00 | 0.00 | 0.00 | 90 | 1045.0 |
| 20260506140131 | 76 | 170 | 2.0 | 6.0 | 0.00 | 0.00 | 0.00 | 90 | 1044.7 |
| 20260506135627 | 76 | 99 | 0.0 | 3.0 | 0.00 | 0.00 | 0.00 | 91 | 1045.1 |
| 20260506135124 | 76 | 123 | 0.0 | 2.0 | 0.00 | 0.00 | 0.00 | 91 | 1045.3 |
| 20260506134620 | 75 | 151 | 5.0 | 5.0 | 0.00 | 0.00 | 0.00 | 92 | 1044.4 |
| 20260506134116 | 75 | 147 | 2.0 | 5.0 | 0.00 | 0.00 | 0.00 | 92 | 1044.2 |
| 20260506133614 | 75 | 134 | 4.0 | 4.0 | 0.00 | 0.00 | 0.00 | 92 | 1044.6 |
| 20260506133110 | 75 | 164 | 2.0 | 5.0 | 0.00 | 0.00 | 0.00 | 92 | 1044.7 |
| 20260506132608 | 75 | 142 | 3.0 | 5.0 | 0.00 | 0.00 | 0.00 | 92 | 1044.3 |
| 20260506132105 | 76 | 145 | 3.0 | 8.0 | 0.00 | 0.00 | 0.00 | 91 | 1044.4 |
| 20260506131602 | 76 | 140 | 6.0 | 6.0 | 0.00 | 0.00 | 0.00 | 91 | 1044.4 |
| 20260506131058 | 76 | 186 | 3.0 | 6.0 | 0.00 | 0.00 | 0.00 | 91 | 1044.1 |
| 20260506130555 | 76 | 154 | 8.0 | 10.0 | 0.00 | 0.00 | 0.00 | 92 | 1043.9 |
| 20260506130053 | 75 | 172 | 4.0 | 10.0 | 0.00 | 0.00 | 0.00 | 93 | 1044.0 |
| 20260506125551 | 75 | 180 | 5.0 | 8.0 | 0.00 | 0.00 | 0.00 | 94 | 1043.9 |
| 20260506125048 | 75 | 180 | 4.0 | 6.0 | 0.00 | 0.00 | 0.00 | 94 | 1043.9 |
| 20260506124546 | 74 | 149 | 4.0 | 5.0 | 0.00 | 0.00 | 0.00 | 95 | 1043.8 |
| 20260506124044 | 74 | 176 | 4.0 | 5.0 | 0.00 | 0.00 | 0.00 | 95 | 1043.8 |
| 20260506123541 | 74 | 166 | 2.0 | 5.0 | 0.00 | 0.00 | 0.00 | 96 | 1043.8 |
| 20260506123039 | 73 | 180 | 2.0 | 7.0 | 0.00 | 0.00 | 0.00 | 96 | 1043.7 |
| 20260506122535 | 73 | 132 | 2.0 | 4.0 | 0.00 | 0.00 | 0.00 | 96 | 1043.6 |
| 20260506122034 | 73 | 162 | 1.0 | 4.0 | 0.00 | 0.00 | 0.00 | 96 | 1043.6 |
| 20260506121531 | 73 | 169 | 2.0 | 4.0 | 0.00 | 0.00 | 0.00 | 96 | 1043.9 |
| 20260506121027 | 73 | 164 | 0.0 | 5.0 | 0.00 | 0.00 | 0.00 | 96 | 1043.9 |
| 20260506120525 | 73 | 156 | 4.0 | 5.0 | 0.00 | 0.00 | 0.00 | 95 | 1043.5 |
| 20260506120022 | 73 | 199 | 3.0 | 5.0 | 0.00 | 0.00 | 0.00 | 95 | 1043.6 |
| 20260506115520 | 73 | 165 | 0.0 | 4.0 | 0.00 | 0.00 | 0.00 | 95 | 1043.6 |
| 20260506115018 | 74 | 177 | 3.0 | 4.0 | 0.00 | 0.00 | 0.00 | 95 | 1043.7 |
| 20260506114515 | 74 | 131 | 2.0 | 2.0 | 0.00 | 0.00 | 0.00 | 95 | 1043.6 |
| 20260506114014 | 74 | 154 | 1.0 | 3.0 | 0.00 | 0.00 | 0.00 | 95 | 1043.7 |
| 20260506113511 | 74 | 169 | 3.0 | 4.0 | 0.00 | 0.00 | 0.00 | 94 | 1043.3 |
| 20260506113009 | 74 | 228 | 2.0 | 4.0 | 0.00 | 0.00 | 0.00 | 94 | 1043.7 |
| 20260506112505 | 74 | 188 | 2.0 | 5.0 | 0.00 | 0.00 | 0.00 | 95 | 1043.8 |
| 20260506112003 | 74 | 208 | 3.0 | 4.0 | 0.00 | 0.00 | 0.00 | 95 | 1043.7 |
| 20260506111501 | 74 | 209 | 3.0 | 4.0 | 0.00 | 0.00 | 0.00 | 95 | 1043.9 |
| 20260506110957 | 74 | 186 | 0.0 | 2.0 | 0.00 | 0.00 | 0.00 | 95 | 1043.8 |
| 20260506110455 | 74 | 201 | 2.0 | 3.0 | 0.00 | 0.00 | 0.00 | 95 | 1043.8 |
| 20260506105951 | 74 | 237 | 2.0 | 4.0 | 0.00 | 0.00 | 0.00 | 95 | 1043.7 |
| 20260506105448 | 74 | 175 | 2.0 | 2.0 | 0.00 | 0.00 | 0.00 | 95 | 1043.8 |
| 20260506104945 | 74 | 225 | 3.0 | 4.0 | 0.00 | 0.00 | 0.00 | 95 | 1043.8 |
| 20260506104443 | 74 | 230 | 4.0 | 5.0 | 0.00 | 0.00 | 0.00 | 95 | 1043.6 |
| 20260506103941 | 74 | 215 | 1.0 | 3.0 | 0.00 | 0.00 | 0.00 | 95 | 1043.9 |
| 20260506103438 | 74 | 229 | 3.0 | 4.0 | 0.00 | 0.00 | 0.00 | 95 | 1043.6 |
| 20260506102935 | 74 | 244 | 3.0 | 5.0 | 0.00 | 0.00 | 0.00 | 95 | 1043.8 |
| 20260506102433 | 74 | 228 | 2.0 | 5.0 | 0.00 | 0.00 | 0.00 | 95 | 1043.5 |
| 20260506101930 | 74 | 180 | 3.0 | 5.0 | 0.00 | 0.00 | 0.00 | 95 | 1043.6 |
| 20260506101426 | 74 | 170 | 3.0 | 4.0 | 0.00 | 0.00 | 0.00 | 94 | 1043.4 |
| 20260506100924 | 74 | 207 | 4.0 | 5.0 | 0.00 | 0.00 | 0.00 | 94 | 1043.5 |
| 20260506100422 | 74 | 177 | 3.0 | 5.0 | 0.00 | 0.00 | 0.00 | 94 | 1043.4 |
| 20260506095920 | 74 | 183 | 0.0 | 4.0 | 0.00 | 0.00 | 0.00 | 93 | 1043.2 |
| 20260506095418 | 75 | 217 | 7.0 | 8.0 | 0.00 | 0.00 | 0.00 | 93 | 1043.4 |
| 20260506094914 | 75 | 221 | 0.0 | 4.0 | 0.00 | 0.00 | 0.00 | 92 | 1043.3 |
| 20260506094413 | 75 | 201 | 0.0 | 7.0 | 0.00 | 0.00 | 0.00 | 92 | 1043.0 |
| 20260506093910 | 75 | 193 | 3.0 | 7.0 | 0.00 | 0.00 | 0.00 | 92 | 1043.1 |
| 20260506093407 | 75 | 206 | 3.0 | 6.0 | 0.00 | 0.00 | 0.00 | 91 | 1042.9 |
| 20260506092905 | 75 | 187 | 5.0 | 6.0 | 0.00 | 0.00 | 0.00 | 91 | 1042.8 |
| 20260506092403 | 75 | 135 | 3.0 | 5.0 | 0.00 | 0.00 | 0.00 | 91 | 1042.8 |
| 20260506091859 | 75 | 168 | 4.0 | 7.0 | 0.00 | 0.00 | 0.00 | 91 | 1042.8 |
| 20260506091357 | 75 | 186 | 4.0 | 5.0 | 0.00 | 0.00 | 0.00 | 91 | 1042.8 |
| 20260506090854 | 75 | 195 | 2.0 | 5.0 | 0.00 | 0.00 | 0.00 | 91 | 1042.6 |
| 20260506090352 | 75 | 166 | 4.0 | 6.0 | 0.00 | 0.00 | 0.00 | 91 | 1042.9 |
| 20260506085848 | 75 | 180 | 3.0 | 7.0 | 0.00 | 0.00 | 0.00 | 91 | 1042.7 |
| 20260506085345 | 75 | 207 | 6.0 | 6.0 | 0.00 | 0.00 | 0.00 | 90 | 1042.6 |
| 20260506084841 | 75 | 223 | 5.0 | 13.0 | 0.00 | 0.00 | 0.00 | 90 | 1042.4 |
| 20260506084338 | 75 | 221 | 4.0 | 6.0 | 0.00 | 0.00 | 0.00 | 90 | 1042.7 |
| 20260506083835 | 75 | 222 | 3.0 | 8.0 | 0.00 | 0.00 | 0.00 | 90 | 1042.7 |
| 20260506083332 | 75 | 210 | 7.0 | 9.0 | 0.00 | 0.00 | 0.00 | 90 | 1042.5 |
| 20260506082830 | 75 | 184 | 4.0 | 8.0 | 0.00 | 0.00 | 0.00 | 90 | 1042.7 |
| 20260506082326 | 75 | 210 | 4.0 | 11.0 | 0.00 | 0.00 | 0.00 | 90 | 1042.4 |
| 20260506081822 | 75 | 207 | 8.0 | 10.0 | 0.00 | 0.00 | 0.00 | 90 | 1042.5 |
| 20260506081320 | 75 | 199 | 8.0 | 15.0 | 0.00 | 0.00 | 0.00 | 90 | 1042.5 |
| 20260506080817 | 75 | 216 | 3.0 | 9.0 | 0.00 | 0.00 | 0.00 | 90 | 1042.4 |
| 20260506080314 | 75 | 196 | 8.0 | 14.0 | 0.00 | 0.00 | 0.00 | 90 | 1042.4 |
| 20260506073258 | 75 | 204 | 4.0 | 15.0 | 0.00 | 0.00 | 0.00 | 91 | 1042.8 |
| 20260506072755 | 75 | 172 | 12.0 | 16.0 | 0.00 | 0.00 | 0.00 | 91 | 1042.6 |
| 20260506072252 | 75 | 216 | 4.0 | 12.0 | 0.00 | 0.00 | 0.00 | 91 | 1043.0 |
| 20260506071750 | 75 | 223 | 11.0 | 15.0 | 0.00 | 0.00 | 0.00 | 91 | 1043.0 |
| 20260506071248 | 75 | 228 | 8.0 | 19.0 | 0.00 | 0.00 | 0.00 | 91 | 1043.1 |
| 20260506070744 | 75 | 161 | 8.0 | 17.0 | 0.00 | 0.00 | 0.00 | 91 | 1043.1 |
| 20260506070241 | 75 | 162 | 6.0 | 16.0 | 0.00 | 0.00 | 0.00 | 91 | 1043.0 |
| 20260506062218 | 75 | 232 | 5.0 | 14.0 | 0.00 | 0.00 | 0.00 | 91 | 1042.7 |
| 20260506061714 | 75 | 176 | 8.0 | 14.0 | 0.00 | 0.00 | 0.00 | 91 | 1042.9 |
| 20260506061212 | 75 | 180 | 0.0 | 16.0 | 0.00 | 0.00 | 0.00 | 91 | 1042.7 |
| 20260506060711 | 75 | 209 | 3.0 | 18.0 | 0.00 | 0.00 | 0.00 | 91 | 1042.7 |
| 20260506060207 | 75 | 163 | 5.0 | 17.0 | 0.00 | 0.00 | 0.00 | 91 | 1042.6 |
| 20260506051139 | 76 | 172 | 7.0 | 17.0 | 0.00 | 0.00 | 0.00 | 90 | 1042.9 |
| 20260506050638 | 76 | 159 | 6.0 | 11.0 | 0.00 | 0.00 | 0.00 | 90 | 1042.8 |
| 20260506050134 | 76 | 146 | 7.0 | 14.0 | 0.00 | 0.00 | 0.00 | 90 | 1042.7 |
| 20260506045127 | 76 | 162 | 6.0 | 14.0 | 0.00 | 0.00 | 0.00 | 90 | 1042.7 |
| 20260506044625 | 76 | 220 | 11.0 | 20.0 | 0.00 | 0.00 | 0.00 | 90 | 1042.9 |
| 20260506044122 | 76 | 167 | 5.0 | 11.0 | 0.00 | 0.00 | 0.00 | 90 | 1042.8 |
| 20260506043619 | 76 | 186 | 11.0 | 16.0 | 0.00 | 0.00 | 0.00 | 89 | 1042.7 |
| 20260506043117 | 76 | 172 | 17.0 | 18.0 | 0.00 | 0.00 | 0.00 | 90 | 1042.9 |
| 20260506042616 | 76 | 150 | 11.0 | 13.0 | 0.00 | 0.00 | 0.00 | 90 | 1042.7 |
| 20260506042114 | 76 | 178 | 3.0 | 7.0 | 0.00 | 0.00 | 0.00 | 90 | 1042.6 |
| 20260506041612 | 76 | 180 | 0.0 | 9.0 | 0.00 | 0.00 | 0.00 | 90 | 1042.6 |
| 20260506041108 | 76 | 180 | 6.0 | 6.0 | 0.00 | 0.00 | 0.00 | 90 | 1042.4 |
| 20260506040606 | 76 | 150 | 6.0 | 8.0 | 0.00 | 0.00 | 0.00 | 90 | 1042.7 |
| 20260506035559 | 76 | 209 | 3.0 | 5.0 | 0.00 | 0.00 | 0.00 | 89 | 1042.4 |
| 20260506035056 | 76 | 220 | 3.0 | 9.0 | 0.00 | 0.00 | 0.00 | 89 | 1042.2 |
| 20260506034553 | 77 | 155 | 4.0 | 12.0 | 0.00 | 0.00 | 0.00 | 89 | 1042.2 |
| 20260506034050 | 77 | 139 | 7.0 | 12.0 | 0.00 | 0.00 | 0.00 | 88 | 1042.2 |
| 20260506033548 | 77 | 165 | 12.0 | 12.0 | 0.00 | 0.00 | 0.00 | 88 | 1042.3 |
| 20260506033044 | 77 | 180 | 5.0 | 9.0 | 0.00 | 0.00 | 0.00 | 87 | 1042.2 |
| 20260506032542 | 77 | 180 | 5.0 | 15.0 | 0.00 | 0.00 | 0.00 | 87 | 1042.4 |
| 20260506032038 | 77 | 204 | 4.0 | 12.0 | 0.00 | 0.00 | 0.00 | 87 | 1042.3 |
| 20260506031536 | 77 | 144 | 3.0 | 8.0 | 0.00 | 0.00 | 0.00 | 87 | 1042.2 |
| 20260506031033 | 77 | 202 | 2.0 | 8.0 | 0.00 | 0.00 | 0.00 | 86 | 1041.9 |
| 20260506030531 | 77 | 166 | 3.0 | 8.0 | 0.00 | 0.00 | 0.00 | 86 | 1041.7 |
| 20260506030028 | 77 | 202 | 4.0 | 7.0 | 0.00 | 0.00 | 0.00 | 86 | 1041.8 |
| 20260506025525 | 77 | 158 | 5.0 | 5.0 | 0.00 | 0.00 | 0.00 | 86 | 1041.8 |
| 20260506025021 | 77 | 172 | 2.0 | 7.0 | 0.00 | 0.00 | 0.00 | 85 | 1042.0 |
| 20260506024518 | 77 | 157 | 2.0 | 5.0 | 0.00 | 0.00 | 0.00 | 85 | 1041.8 |
| 20260506024014 | 77 | 161 | 2.0 | 6.0 | 0.00 | 0.00 | 0.00 | 85 | 1041.7 |
| 20260506023510 | 77 | 199 | 2.0 | 3.0 | 0.00 | 0.00 | 0.00 | 86 | 1041.7 |
| 20260506023008 | 77 | 150 | 3.0 | 5.0 | 0.00 | 0.00 | 0.00 | 86 | 1041.3 |
| 20260506012627 | 80 | 165 | 2.0 | 6.0 | 0.00 | 0.00 | 0.00 | 80 | 1040.8 |
| 20260506012124 | 80 | 165 | 2.0 | 6.0 | 0.00 | 0.00 | 0.00 | 80 | 1040.8 |
| 20260506011622 | 80 | 165 | 2.0 | 6.0 | 0.00 | 0.00 | 0.00 | 80 | 1040.8 |
| 20260506011118 | 80 | 172 | 2.0 | 9.0 | 0.00 | 0.00 | 0.00 | 79 | 1040.5 |
| 20260506010617 | 80 | 170 | 2.0 | 5.0 | 0.00 | 0.00 | 0.00 | 79 | 1040.6 |
| 20260506010113 | 80 | 169 | 5.0 | 7.0 | 0.00 | 0.00 | 0.00 | 78 | 1040.5 |
| 20260506005611 | 81 | 180 | 8.0 | 10.0 | 0.00 | 0.00 | 0.00 | 77 | 1040.5 |
| 20260506005107 | 81 | 162 | 7.0 | 7.0 | 0.00 | 0.00 | 0.00 | 77 | 1040.6 |
| 20260506004604 | 81 | 199 | 6.0 | 8.0 | 0.00 | 0.00 | 0.00 | 76 | 1040.9 |
| 20260506004100 | 82 | 226 | 5.0 | 9.0 | 0.00 | 0.00 | 0.00 | 75 | 1040.6 |
| 20260506003557 | 82 | 201 | 6.0 | 8.0 | 0.00 | 0.00 | 0.00 | 75 | 1040.8 |
| 20260506003053 | 82 | 228 | 4.0 | 6.0 | 0.00 | 0.00 | 0.00 | 75 | 1040.5 |
| 20260506002549 | 82 | 132 | 0.0 | 10.0 | 0.00 | 0.00 | 0.00 | 75 | 1040.6 |
| 20260506002045 | 82 | 156 | 5.0 | 9.0 | 0.00 | 0.00 | 0.00 | 75 | 1040.6 |
| 20260506001541 | 82 | 246 | 3.0 | 7.0 | 0.00 | 0.00 | 0.00 | 75 | 1040.8 |
| 20260506001039 | 82 | 188 | 5.0 | 6.0 | 0.00 | 0.00 | 0.00 | 74 | 1040.9 |
| 20260506000536 | 82 | 169 | 4.0 | 9.0 | 0.00 | 0.00 | 0.00 | 74 | 1040.5 |
| 20260506000034 | 82 | 226 | 7.0 | 10.0 | 0.00 | 0.00 | 0.00 | 73 | 1040.8 |
| 20260505235531 | 82 | 168 | 6.0 | 10.0 | 0.00 | 0.00 | 0.00 | 73 | 1040.5 |
| 20260505235028 | 82 | 169 | 6.0 | 11.0 | 0.00 | 0.00 | 0.00 | 73 | 1040.6 |
| 20260505234525 | 82 | 243 | 2.0 | 7.0 | 0.00 | 0.00 | 0.00 | 73 | 1040.5 |
| 20260505234022 | 82 | 209 | 5.0 | 14.0 | 0.00 | 0.00 | 0.00 | 73 | 1040.3 |
| 20260505233519 | 83 | 197 | 5.0 | 9.0 | 0.00 | 0.00 | 0.00 | 73 | 1040.3 |
| 20260505233017 | 82 | 216 | 3.0 | 14.0 | 0.00 | 0.00 | 0.00 | 73 | 1040.2 |
| 20260505232514 | 83 | 229 | 2.0 | 15.0 | 0.00 | 0.00 | 0.00 | 72 | 1040.2 |
| 20260505232012 | 83 | 202 | 8.0 | 14.0 | 0.00 | 0.00 | 0.00 | 72 | 1040.4 |
| 20260505231508 | 83 | 162 | 7.0 | 15.0 | 0.00 | 0.00 | 0.00 | 71 | 1040.1 |
| 20260505231007 | 83 | 163 | 5.0 | 11.0 | 0.00 | 0.00 | 0.00 | 71 | 1040.5 |
| 20260505230504 | 83 | 171 | 7.0 | 9.0 | 0.00 | 0.00 | 0.00 | 72 | 1040.3 |
| 20260505230000 | 83 | 158 | 7.0 | 16.0 | 0.00 | 0.00 | 0.00 | 72 | 1040.2 |
| 20260505225457 | 83 | 163 | 4.0 | 11.0 | 0.00 | 0.00 | 0.00 | 71 | 1040.1 |
| 20260505224953 | 83 | 233 | 4.0 | 11.0 | 0.00 | 0.00 | 0.00 | 71 | 1040.1 |
| 20260505224450 | 84 | 219 | 7.0 | 13.0 | 0.00 | 0.00 | 0.00 | 70 | 1040.2 |
| 20260505223948 | 83 | 223 | 6.0 | 13.0 | 0.00 | 0.00 | 0.00 | 70 | 1040.0 |
| 20260505223444 | 84 | 202 | 3.0 | 7.0 | 0.00 | 0.00 | 0.00 | 71 | 1040.2 |
| 20260505222941 | 84 | 239 | 7.0 | 9.0 | 0.00 | 0.00 | 0.00 | 71 | 1040.1 |
| 20260505222437 | 84 | 201 | 6.0 | 13.0 | 0.00 | 0.00 | 0.00 | 70 | 1040.2 |